Regional Weather Roundup
Issued by NWS

Home | Current Version | Previous Version | Graphics & Text | Print | Product List | Glossary On
Versions: 1 2 3 4 5 6 7 8 9 10 11 12 13 14 15 16 17 18 19 20 21 22 23 24 25 26 27 28 29 30 31 32 33 34 35 36 37 38 39 40 41 42 43 44 45 46 47 48 49 50
000
ASUS43 KBIS 051010
RWRND

NORTH DAKOTA REGIONAL WEATHER ROUNDUP
NATIONAL WEATHER SERVICE BISMARCK ND
500 AM CDT TUE MAY 05 2015

NOTE: "FAIR" INDICATES FEW OR NO CLOUDS BELOW 12,000 FEET WITH NO
SIGNIFICANT WEATHER AND/OR OBSTRUCTIONS TO VISIBILITY.


NDZ001>003-009>011-017-051100-
NORTHWEST NORTH DAKOTA

CITY           SKY/WX    TMP DP  RH WIND       PRES   REMARKS
WILLISTON      CLEAR     50  28  42 S8        29.97F
MINOT          CLOUDY    55  27  34 SE12      30.05S
MINOT AFB      CLOUDY    50  35  55 SE9       30.04S
$$

NDZ018>021-031>035-040>046-051100-
SOUTHWEST NORTH DAKOTA

CITY           SKY/WX    TMP DP  RH WIND       PRES   REMARKS
BISMARCK       MOCLDY    50  28  42 E9        30.08F
DICKINSON      CLEAR     42  27  55 SE8       29.99F
GARRISON         N/A     51  32  48 SE7       30.05F
HETTINGER ARPT CLOUDY    47  28  47 E9        30.02F
$$

NDZ004>008-012>016-024-026-027-054-051100-
NORTHEAST NORTH DAKOTA

CITY           SKY/WX    TMP DP  RH WIND       PRES   REMARKS
GRAND FORKS    CLEAR     37  26  64 S6        30.16S
GRND FRKS AFB  CLEAR     38  25  59 S7        30.15F
DEVILS LAKE    CLOUDY    52  34  50 S12       30.13S
$$

NDZ022-023-025-028>030-036>039-047>053-051100-
SOUTHEAST NORTH DAKOTA

CITY           SKY/WX    TMP DP  RH WIND       PRES   REMARKS
FARGO          CLEAR     49  29  46 SE8       30.17S
JAMESTOWN      PTCLDY    44  28  53 S7        30.14S
$$




USA.gov is the U.S. government's official web portal to all federal, state and local government web resources and services.